Showing default

SKYSAT C12, 43797

Orbit data source: Space-Track

SKYSAT C12, 43797 is a payload satellite owned by Terra Bella (US) in SSO that was launched on Mon, 03 Dec 2018 UTC via an FALCON 9 launch vehicle from the Air Force Western Test Range (AFWTR). Payload-class satellites include a variety of spacecraft equipped with specific instruments for various scientific and technological missions. These include communications satellites like Starlink; space stations such as the ISS; scientific satellites like the Hubble; Earth observation satellites from companies like Planet Labs, Umbra, and HawkEye 360; GPS; miniature CubeSats for education and research; and military/defense satellites.

Loading next visibility...
Identifier
43797, 2018-099AR
Orbit
SSO
Country
Flag of USUS
Related business
Manufacturer
Maxar SSL
Mission
Operational Commercial Imaging
Bus & Motor
SKYSAT-GEN2, Unknown motor
Mass
110 kg wet, 110 kg dry
Launch date (UTC)
2018-12-03 (8 years ago)
Launch vehicle
FALCON 9
Launch site
Air Force Western Test Range (AFWTR)
Object type
Payload
Rocket body
Debris
Shape & HBR
Box, 1.0 m
Radar Cross Section
0.888 m², Medium (>0.1 m² and < 1m²)

Expand to show TLE details & history
Last TLE update: 10 hours ago

TLE from 10 hours ago
0 SKYSAT C12
1 43797U 18099AR  26220.00944477  .00010250  00000-0  18117-3 0  9993
2 43797  96.9249 241.2143 0002578   9.6333 350.4969 15.50509697429888
Epoch: 2026-08-08T00:13Z
TLE epoch observation values (Epoch: 2026-08-08T00:13:36.028Z)
Latitude
0.00001°
Longitude
-78.71276°
Altitude
416.654 km
Speed
7.662 km/s
True Right ascension
16h 04m 51s
True Declination
0° 00' 00"
Sunlit
Object was in daylight at epoch
Visualization orbit readout
Latitude
Unknown
Longitude
Unknown
Altitude
Unknown
Speed
Unknown
Apparent Right ascension
Unknown
Apparent Declination
Unknown
Sunlit
N/A
Visualization observer readout
Local Sidereal Time
00:42:31
Azimuth
Unknown
Elevation
Unknown
Doppler factor
Unknown
Orbital elements
Apogee altitude
413.892 km
Perigee altitude
410.391 km
Semi-major axis
6,790.279 km
Eccentricity
0.00026
Inclination
96.9249°
RAAN
241.2143°
Arg. of periapsis
9.6333°
True anomaly
350.49202°
Mean anomaly
350.4969°
Eccentric anomaly
350.49446°
Mean motion
3.87893 °/min
Orbital period
92.81 mins
BSTAR
0.00018117
Loading maneuver chart data...
Computing Atmospheric mass density...
Loading historical data...
Loading historical data...
Loading historical data...
Loading historical data...
Loading historical data...
Loading historical data...
Loading historical data...

Documentation

Showing up to 5 results
|